全部
Kane County Hospital Airport (Kanab, UT) UT02 天气
There is no TAF data available at UT02 or any nearby airports.
There is no METAR data available at UT02. Showing METAR data for KKNB (3 mi S).
KNB近期METAR历史数据(UT02无数据)
| Date | Time (MDT) | Flight Rules | Wind Dir. | Speed | Type | Height AGL (ft) | Visibility | Temp (°C) | Temp (°F) | Dew Point (°C) | Dew Point (°F) | Rel. Humid. | Pressure | Density Altitude | Remarks |
|---|---|---|---|---|---|---|---|---|---|---|---|---|---|---|---|
| 04-九月 | 13:35 | VFR | 180° | 11 kt | 8 miles |
28° | 82° | 8° | 46° | 28% | 30.11 in Hg | 7,187 ft | Wind gusting to 16 KT | ||
| 04-九月 | 13:15 | VFR | 180° | 15 kt | 9 miles |
27° | 80° | 9° | 48° | 32% | 30.11 in Hg | 7,067 ft | Wind gusting to 21 KT | ||
| gap in available data | |||||||||||||||
| 04-九月 | 11:55 | VFR | 180° | 11 kt | 10 miles |
26° | 78° | 9° | 48° | 34% | 30.14 in Hg | 6,917 ft | Wind gusting to 19 KT | ||
| 04-九月 | 11:15 | VFR | 200° | 8 kt | 9 miles | 26° | 78° | 10° | 50° | 37% | 30.15 in Hg | 6,907 ft | Wind gusting to 14 KT | ||
| 04-九月 | 10:55 | VFR | 200° | 10 kt | 9 miles | 25° | 77° | 9° | 48° | 36% | 30.15 in Hg | 6,787 ft | |||
| 04-九月 | 10:15 | VFR | 200° | 11 kt | 9 miles | 24° | 75° | 6° | 42° | 31% | 30.14 in Hg | 6,677 ft | |||
| 04-九月 | 09:55 | VFR | 200° | 9 kt | 9 miles |
24° | 75° | 6° | 42° | 31% | 30.14 in Hg | 6,677 ft | |||
| 04-九月 | 09:35 | VFR | 190° | 7 kt | 10 miles |
23° | 73° | 6° | 42° | 33% | 30.14 in Hg | 6,557 ft | |||
| 04-九月 | 09:15 | VFR | 190° | kt | 9 miles | 22° | 71° | 6° | 42° | 35% | 30.14 in Hg | 6,437 ft | |||
| 04-九月 | 08:55 | VFR | 180° | 1 kt | 9 miles | 21° | 69° | 7° | 44° | 40% | 30.13 in Hg | 6,327 ft | |||
| 04-九月 | 08:35 | VFR | 300° | kt | 9 miles | 20° | 68° | 7° | 44° | 43% | 30.13 in Hg | 6,207 ft | |||
| 04-九月 | 08:15 | VFR | 300° | kt | 9 miles | 19° | 66° | 9° | 48° | 52% | 30.13 in Hg | 6,087 ft | |||
| 04-九月 | 07:55 | VFR | 50° | kt | 9 miles |
16° | 60° | 9° | 48° | 63% | 30.12 in Hg | 5,737 ft | |||
| 04-九月 | 06:55 | VFR | 80° | kt | 10 miles | 13° | 55° | 9° | 48° | 77% | 30.10 in Hg | 5,397 ft | |||
| 04-九月 | 06:15 | VFR | 100° | kt | 10 miles | 12° | 53° | 8° | 46° | 76% | 30.09 in Hg | 5,287 ft | |||
| 04-九月 | 05:35 | VFR | 50° | kt | 10 miles | 14° | 57° | 9° | 48° | 72% | 30.08 in Hg | 5,537 ft | |||
| 04-九月 | 05:15 | VFR | 320° | kt | 10 miles | 15° | 59° | 9° | 48° | 67% | 30.07 in Hg | 5,667 ft | |||
| 04-九月 | 04:55 | VFR | 10° | kt | 10 miles | 16° | 60° | 10° | 50° | 68% | 30.07 in Hg | 5,787 ft | |||
| 04-九月 | 04:15 | VFR | 70° | kt | 10 miles | 16° | 60° | 9° | 48° | 63% | 30.06 in Hg | 5,797 ft | |||
| 04-九月 | 03:55 | VFR | 150° | kt | 10 miles | 16° | 60° | 9° | 48° | 63% | 30.05 in Hg | 5,807 ft | |||
| 04-九月 | 03:35 | VFR | 160° | kt | 10 miles | 16° | 60° | 9° | 48° | 63% | 30.05 in Hg | 5,807 ft | |||
| 04-九月 | 03:15 | VFR | 90° | 3 kt | 10 miles | 16° | 60° | 9° | 48° | 63% | 30.05 in Hg | 5,807 ft | |||
| 04-九月 | 02:55 | VFR | 80° | kt | 10 miles | 15° | 59° | 8° | 46° | 63% | 30.05 in Hg | 5,687 ft | |||
| 04-九月 | 02:35 | VFR | 50° | kt | 10 miles | 15° | 59° | 9° | 48° | 67% | 30.05 in Hg | 5,687 ft | |||
登录
| 您的浏览器不支持. 升级您的浏览器 |
